Regional Weather Roundup
Issued by NWS Memphis, TN

Home | Current Version | Previous Version | Text Only | Print | Product List | Glossary On
Versions: 1 2 3 4 5 6 7 8 9 10 11 12 13 14 15 16 17 18 19 20 21 22 23 24 25 26 27 28 29 30 31 32 33 34 35 36 37 38 39 40 41 42 43 44 45 46 47 48 49 50
000
ASUS44 KMEG 251600
RWRMEG
MEMPHIS CWA HOURLY WEATHER ROUNDUP
NATIONAL WEATHER SERVICE MEMPHIS TN
1000 AM CST SAT FEB 25 2017

...WEST TENNESSEE...

CITY           SKY/WX    TMP DP  RH WIND       PRES   REMARKS
MEMPHIS INTL   SUNNY     42  23  46 NW12G21   30.11S
NWS MEMPHIS      N/A     40 N/A N/A MISG        N/A
JACKSON        SUNNY     40  23  50 NW10      30.09R WCI  33
UNION CITY     SUNNY     36  16  44 CALM      30.08R
PARIS          MOSUNNY   36  19  51 NW12      30.05S WCI  27


...EASTERN ARKANSAS...

CITY           SKY/WX    TMP DP  RH WIND       PRES   REMARKS
JONESBORO      SUNNY     37  19  48 N13G18    30.14R WCI  29
WEST MEMPHIS   MOSUNNY   38  24  57 NW10G20   30.14R WCI  31
BATESVILLE     SUNNY     36  18  48 NW8G16    30.16S WCI  29
NEWPORT        SUNNY     36  18  48 N16       30.17R WCI  26
WALNUT RIDGE   SUNNY     37  16  41 NW16      30.14R WCI  28
BLYTHEVILLE    SUNNY     39  22  50 NW16G24   30.13R WCI  30
SEARCY         SUNNY     39  20  46 N10       30.18R WCI  32
STUTTGART      SUNNY     39  18  41 NW10      30.18R WCI  32
PINE BLUFF     SUNNY     40  22  48 N8        30.19R WCI  34
MONTICELLO     SUNNY     44  20  38 N8        30.17R


...NORTH MISSISSIPPI...

CITY           SKY/WX    TMP DP  RH WIND       PRES   REMARKS
TUPELO         SUNNY     43  21  41 NW12      30.09R
OXFORD         SUNNY     41  21  45 W12       30.13R
BATESVILLE     SUNNY     42  25  51 N12G17    30.14R
TUNICA         SUNNY     39  23  52 N15       30.16R WCI  31
GREENWOOD      SUNNY     45  23  42 NW8       30.14R
COLUMBUS       SUNNY     48  30  50 NW12G18   30.08R
STARKVILLE     SUNNY     45  27  49 NW9G17    30.11R
GOLDEN TRIANGL SUNNY     48  28  46 NW9       30.05R


...SOUTHEAST MISSOURI...

CITY           SKY/WX    TMP DP  RH WIND       PRES   REMARKS
KENNETT        SUNNY     36  19  51 NW16      30.12R WCI  26
MALDEN         MOSUNNY   36  19  51 W12G18    30.13R WCI  27
WEST PLAINS    SUNNY     34  17  50 NW13      30.10R WCI  25
POPLAR BLUFF   SUNNY     35  19  52 NW10      30.11R WCI  27
CAPE GIRARDEAU SUNNY     36  17  46 NW14      30.09R WCI  27


...NORTHWEST ALABAMA...

CITY           SKY/WX    TMP DP  RH WIND       PRES   REMARKS
MUSCLE SHOALS  SUNNY     44  26  49 NW14      30.05R


...MIDDLE TENNESSEE...

CITY           SKY/WX    TMP DP  RH WIND       PRES   REMARKS
NASHVILLE      PTSUNNY   43  22  43 W12G22    30.01R
CLARKSVILLE    CLOUDY    38  20  48 W16G22    30.04R WCI  29
COLUMBIA       SUNNY     41  25  52 W10       30.01R


...WESTERN KENTUCKY...

CITY           SKY/WX    TMP DP  RH WIND       PRES   REMARKS
PADUCAH        PTSUNNY   36  18  48 NW15      30.06S WCI  27
FORT CAMPBELL  CLOUDY    36  20  50 W10       30.03R WCI  29


...CENTRAL ARKANSAS...

CITY           SKY/WX    TMP DP  RH WIND       PRES   REMARKS
LITTLE ROCK    SUNNY     40  20  44 NW9       30.18R WCI  34


SKY/WX REPORTED AS FAIR MEANS FEW OR NO CLOUDS BELOW
12 THOUSAND FEET.





USA.gov is the U.S. government's official web portal to all federal, state and local government web resources and services.